Simultaneous Nadir Overpasses (SNOs) Predictions

Prediction of SNOs between NOAA-19 and METOP-C Satellite Orbit:

Table of predicted SNOs for the next 14.0 days since TLE Epoch: 8/7/2020
Index Date (NOAA-19) Time (NOAA-19) Lat,Lon (NOAA-19) SZA (NOAA-19 ) Date (METOP-C) Time (METOP-C) Lat,Lon (METOP-C) SZA (METOP-C ) Distance(km) Time Diff (sec)
1 08/10/2020 18:22:30 -80.11, 107.76 114.44 08/10/2020 18:23:43 -80.11, 107.70 114.42 1.13 73
2 08/10/2020 19:13:29 80.11, -85.03 65.58 08/10/2020 19:14:24 80.12, -84.91 65.61 2.43 55
3 08/10/2020 20:04:31 -80.12, 82.11 114.42 08/10/2020 20:05:05 -80.10, 82.22 114.42 3.20 34
4 08/10/2020 20:55:29 80.10,-110.36 65.60 08/10/2020 20:55:46 80.10,-110.39 65.61 0.75 17
5 08/10/2020 21:46:31 -80.11, 56.78 114.39 08/10/2020 21:46:27 -80.09, 56.75 114.42 2.49 4
6 08/10/2020 22:37:30 80.11,-136.00 65.62 08/10/2020 22:37:08 80.09,-135.86 65.61 3.33 22
7 08/10/2020 23:28:31 -80.10, 31.45 114.37 08/10/2020 23:27:48 -80.10, 31.57 114.37 2.51 43
8 08/11/2020 00:19:30 80.10,-161.33 65.64 08/11/2020 00:18:30 80.08,-161.34 65.61 2.12 60
9 08/21/2020 19:35:48 -80.12, 89.66 110.87 08/21/2020 19:37:01 -80.13, 89.52 110.86 2.77 73
10 08/21/2020 20:26:50 80.13,-103.24 69.15 08/21/2020 20:27:42 80.12,-103.19 69.15 1.50 52
11 08/21/2020 21:17:49 -80.13, 64.01 110.85 08/21/2020 21:18:23 -80.11, 64.04 110.85 2.41 34
